Flag for Pakistan Weather past 2 weeks in Islamabad, Pakistan

Now
75 °F

Scattered clouds.


Feels Like: 78 °F
Forecast: 60 / 88 °F
Wind: 12 mph from Southwest

Location: Islamabad Airport

Current Time: Oct 24, 2014 at 1:34:07 PM

Latest Report: Oct 24, 2014 at 1:00 PM


Visibility: N/A

Pressure: 30.04 "Hg

Humidity: 57%

Dew point: 59 °F

Location of IslamabadLocation

Historic Weather in Islamabad — Graph

°F

Islamabad temperature yesterday

Maximum temperature yesterday: 88 °F (at 3:00 PM)
Minimum temperature yesterday: 63 °F (at 5:00 AM)
Average temperature yesterday: 74 °F

Past Weeks' High & Low Weather Summary

 TemperatureHumidityPressure
High91 °F (Oct 12, 3:00 PM)94% (Oct 19, 6:00 AM)30.15 "Hg (Oct 19, 6:00 AM)
Low57 °F (Oct 16, 7:00 AM)28% (Oct 15, 8:00 PM)29.86 "Hg (Oct 10, 3:00 PM)
Average71 °F65%30.00 "Hg
* Reported Oct 9 12:00 Noon — Oct 24 12:00 Noon, Islamabad, Weather by CustomWeather, © 2014

Note: Actual official high and low records may vary slightly from our data, if they occured in-between our weather recording intervals... More about our weather records

Advertising

Islamabad weather history for previous 24 hours

 ConditionsComfort  
Time TempWeatherWind HumidityBarometerVisibility
12:00 PM
Oct 24
73 °FScattered clouds.5 mph61%30.07 "HgN/A
11:00 AM70 °FThunderstorms. Scattered clouds.18 mph69%30.07 "HgN/A
10:00 AM63 °FThunderstorms. Broken clouds.16 mph94%30.09 "Hg4 mi
9:00 AM63 °FThunderstorms. Broken clouds.18 mph88%30.12 "Hg2 mi
8:00 AM63 °FThunderstorms. Broken clouds.14 mph77%30.09 "Hg2 mi
7:00 AM63 °FThunderstorms. Broken clouds.12 mph77%30.01 "Hg2 mi
6:00 AM61 °FThunderstorms. Partly cloudy.14 mph88%30.01 "Hg2 mi
4:00 AM64 °FThundershowers. Passing clouds.14 mph73%29.98 "Hg2 mi
3:00 AM64 °FThundershowers. Passing clouds.16 mph73%29.98 "Hg2 mi
2:00 AM64 °FThundershowers. Partly cloudy.23 mph78%29.98 "Hg2 mi
1:00 AM64 °FThunderstorms. Partly cloudy.35 mph78%29.98 "Hg2 mi
12:00 AM64 °FThunderstorms. Partly cloudy.14 mph78%30.09 "Hg2 mi
10:00 PM
Oct 23
72 °FThunderstorms. Partly cloudy.40 mph73%30.04 "Hg1 mi
9:45 PMN/AThunderstorms.35 mphN/AN/A2 mi
9:00 PM73 °FPartly cloudy.12 mph69%30.01 "Hg2 mi
8:00 PM75 °FPassing clouds.12 mph65%29.95 "Hg2 mi
7:00 PM77 °FHaze.9 mph61%29.95 "Hg2 mi
6:00 PM81 °FPassing clouds.5 mph54%29.95 "Hg4 mi
5:00 PM84 °FPassing clouds.No wind48%29.95 "Hg4 mi
4:00 PM86 °FPassing clouds.No wind43%29.95 "Hg4 mi
3:00 PM88 °FPassing clouds.7 mph40%29.98 "Hg4 mi
2:00 PM84 °FPassing clouds.5 mph48%29.98 "Hg4 mi
1:00 PM82 °FPassing clouds.7 mph51%30.01 "Hg4 mi
Weather by CustomWeather, © 2014

See weather overviewHow to use our weather pages